• en France
  • Liste des pays
  • À 7 jours
  • Température de l'eau
  • Carte satellitaire
  • Carte météo
  • Widgets météo
  • user-avatar
    Se connecter

    Météo par heure à Plymouth

    Ce jour, 19 Octobre, Vendredi

    Heure Température Précipitation Vent Pression Humidité
    00:00 +10°C° 0 mm 3 m/s 767 mmHg 92%
    01:00 +10°C° 0 mm 3 m/s 767 mmHg 92%
    02:00 +10°C° 0 mm 3 m/s 767 mmHg 92%
    03:00 +10°C° 0 mm 3 m/s 767 mmHg 92%
    04:00 +10°C° 0 mm 2 m/s 767 mmHg 93%
    05:00 +9°C° 0 mm 2 m/s 767 mmHg 93%
    06:00 +9°C° 0 mm 2 m/s 767 mmHg 93%
    07:00 +10°C° 0 mm 2 m/s 767 mmHg 91%
    08:00 +12°C° 0 mm 2 m/s 767 mmHg 88%
    09:00 +13°C° 0 mm 2 m/s 768 mmHg 86%
    10:00 +14°C° 0 mm 2 m/s 768 mmHg 82%
    11:00 +16°C° 0 mm 2 m/s 768 mmHg 78%
    12:00 +17°C° 0 mm 2 m/s 768 mmHg 74%
    13:00 +17°C° 0 mm 2 m/s 768 mmHg 75%
    14:00 +16°C° 0 mm 2 m/s 768 mmHg 76%
    15:00 +16°C° 0 mm 1 m/s 768 mmHg 77%
    16:00 +15°C° 0 mm 1 m/s 768 mmHg 80%
    17:00 +14°C° 0 mm 1 m/s 769 mmHg 84%
    18:00 +13°C° 0 mm 1 m/s 769 mmHg 88%
    19:00 +13°C° 0 mm 1 m/s 769 mmHg 89%
    20:00 +13°C° 0 mm 1 m/s 769 mmHg 90%
    21:00 +12°C° 0 mm 1 m/s 770 mmHg 91%
    22:00 +12°C° 0 mm 1 m/s 770 mmHg 92%
    23:00 +11°C° 0 mm 1 m/s 770 mmHg 92%

    Demain, 20 Octobre, Samedi

    Heure Température Précipitation Vent Pression Humidité
    00:00 +11°C° 0 mm 1 m/s 770 mmHg 92%
    01:00 +11°C° 0 mm 1 m/s 770 mmHg 92%
    02:00 +10°C° 0 mm 2 m/s 770 mmHg 92%
    03:00 +10°C° 0 mm 2 m/s 770 mmHg 92%
    04:00 +10°C° 0 mm 2 m/s 771 mmHg 92%
    05:00 +10°C° 0 mm 2 m/s 771 mmHg 92%
    06:00 +9°C° 0 mm 2 m/s 771 mmHg 91%
    07:00 +12°C° 0 mm 2 m/s 771 mmHg 89%
    08:00 +13°C° 0 mm 2 m/s 772 mmHg 86%
    09:00 +14°C° 0 mm 2 m/s 772 mmHg 84%
    10:00 +15°C° 0 mm 2 m/s 772 mmHg 79%
    11:00 +16°C° 0 mm 2 m/s 772 mmHg 75%
    12:00 +17°C° 0 mm 2 m/s 772 mmHg 70%
    13:00 +17°C° 0 mm 2 m/s 772 mmHg 70%
    14:00 +17°C° 0 mm 2 m/s 772 mmHg 70%
    15:00 +17°C° 0 mm 2 m/s 771 mmHg 71%
    16:00 +16°C° 0 mm 1 m/s 771 mmHg 76%
    17:00 +14°C° 0 mm 1 m/s 771 mmHg 82%
    18:00 +13°C° 0 mm 1 m/s 771 mmHg 88%
    19:00 +12°C° 0 mm 1 m/s 771 mmHg 89%
    20:00 +12°C° 0 mm 1 m/s 771 mmHg 89%
    21:00 +12°C° 0 mm 1 m/s 772 mmHg 90%
    22:00 +12°C° 0 mm 2 m/s 771 mmHg 90%
    23:00 +10°C° 0 mm 2 m/s 771 mmHg 90%

    Après-demain, 21 Octobre, Dimanche

    Heure Température Précipitation Vent Pression Humidité
    00:00 +10°C° 0 mm 2 m/s 771 mmHg 90%
    01:00 +10°C° 0 mm 2 m/s 771 mmHg 90%
    02:00 +10°C° 0 mm 2 m/s 770 mmHg 89%
    03:00 +10°C° 0 mm 2 m/s 770 mmHg 88%
    04:00 +11°C° 0 mm 1 m/s 770 mmHg 88%
    05:00 +11°C° 0 mm 1 m/s 770 mmHg 88%
    06:00 +10°C° 0 mm 1 m/s 770 mmHg 87%
    07:00 +11°C° 0 mm 1 m/s 770 mmHg 84%
    08:00 +13°C° 0 mm 1 m/s 770 mmHg 81%
    09:00 +14°C° 0 mm 1 m/s 770 mmHg 78%
    10:00 +15°C° 0 mm 1 m/s 770 mmHg 74%
    11:00 +16°C° 0 mm 1 m/s 770 mmHg 69%
    12:00 +19°C° 0 mm 1 m/s 770 mmHg 64%
    13:00 +17°C° 0 mm 2 m/s 770 mmHg 68%
    14:00 +17°C° 0 mm 2 m/s 769 mmHg 71%
    15:00 +17°C° 0 mm 2 m/s 769 mmHg 74%
    16:00 +16°C° 0 mm 3 m/s 770 mmHg 80%
    17:00 +15°C° 0 mm 4 m/s 770 mmHg 86%
    18:00 +14°C° 0 mm 5 m/s 770 mmHg 92%
    19:00 +13°C° 0 mm 6 m/s 771 mmHg 90%
    20:00 +12°C° 0 mm 7 m/s 772 mmHg 88%
    21:00 +11°C° 0 mm 9 m/s 772 mmHg 86%
    22:00 +11°C° 0 mm 9 m/s 773 mmHg 84%
    23:00 +10°C° 0 mm 9 m/s 773 mmHg 82%

    22 Octobre, Lundi

    Heure Température Précipitation Vent Pression Humidité
    00:00 +8°C° 0 mm 9 m/s 774 mmHg 81%
    01:00 +8°C° 0 mm 9 m/s 774 mmHg 80%
    02:00 +7°C° 0 mm 9 m/s 775 mmHg 79%
    03:00 +6°C° 0 mm 9 m/s 775 mmHg 78%
    04:00 +6°C° 0 mm 8 m/s 776 mmHg 78%
    05:00 +6°C° 0 mm 8 m/s 776 mmHg 78%
    06:00 +6°C° 0 mm 8 m/s 777 mmHg 78%
    07:00 +6°C° 0 mm 8 m/s 777 mmHg 76%
    08:00 +7°C° 0 mm 8 m/s 778 mmHg 73%
    09:00 +9°C° 0 mm 8 m/s 778 mmHg 71%
    10:00 +10°C° 0 mm 7 m/s 778 mmHg 68%
    11:00 +10°C° 0 mm 7 m/s 779 mmHg 66%
    12:00 +11°C° 0 mm 6 m/s 779 mmHg 63%
    13:00 +11°C° 0 mm 6 m/s 779 mmHg 64%
    14:00 +11°C° 0 mm 6 m/s 779 mmHg 65%
    15:00 +11°C° 0 mm 6 m/s 778 mmHg 66%
    16:00 +10°C° 0 mm 6 m/s 779 mmHg 71%
    17:00 +9°C° 0 mm 6 m/s 779 mmHg 75%
    18:00 +8°C° 0 mm 6 m/s 779 mmHg 80%
    19:00 +8°C° 0 mm 6 m/s 779 mmHg 81%
    20:00 +8°C° 0 mm 6 m/s 779 mmHg 83%
    21:00 +8°C° 0 mm 6 m/s 779 mmHg 84%
    22:00 +7°C° 0 mm 6 m/s 779 mmHg 86%
    23:00 +7°C° 0 mm 5 m/s 779 mmHg 88%

    23 Octobre, Mardi

    Heure Température Précipitation Vent Pression Humidité
    00:00 +7°C° 0 mm 5 m/s 779 mmHg 89%
    01:00 +7°C° 0 mm 5 m/s 778 mmHg 90%
    02:00 +7°C° 0 mm 5 m/s 778 mmHg 90%
    03:00 +7°C° 0 mm 5 m/s 778 mmHg 90%
    04:00 +7°C° 0 mm 5 m/s 778 mmHg 91%
    05:00 +8°C° 0 mm 5 m/s 777 mmHg 91%
    06:00 +8°C° 0 mm 6 m/s 777 mmHg 92%
    07:00 +9°C° 0 mm 6 m/s 777 mmHg 90%
    08:00 +9°C° 0 mm 6 m/s 777 mmHg 87%
    09:00 +10°C° 0 mm 6 m/s 777 mmHg 84%
    10:00 +11°C° 0 mm 6 m/s 777 mmHg 82%
    11:00 +13°C° 0 mm 6 m/s 777 mmHg 79%
    12:00 +13°C° 0 mm 6 m/s 777 mmHg 76%
    13:00 +13°C° 0 mm 5 m/s 776 mmHg 75%
    14:00 +13°C° 0 mm 5 m/s 776 mmHg 75%
    15:00 +13°C° 0 mm 5 m/s 776 mmHg 74%
    16:00 +12°C° 0 mm 5 m/s 776 mmHg 80%
    17:00 +10°C° 0 mm 5 m/s 776 mmHg 86%
    18:00 +9°C° 0 mm 5 m/s 776 mmHg 91%
    19:00 +8°C° 0 mm 5 m/s 776 mmHg 92%
    20:00 +8°C° 0 mm 5 m/s 776 mmHg 92%
    21:00 +8°C° 0 mm 5 m/s 776 mmHg 93%
    22:00 +8°C° 0 mm 5 m/s 775 mmHg 93%
    23:00 +8°C° 0 mm 4 m/s 775 mmHg 93%

    24 Octobre, Mercredi

    Heure Température Précipitation Vent Pression Humidité
    00:00 +7°C° 0 mm 4 m/s 775 mmHg 93%
    01:00 +7°C° 0 mm 4 m/s 775 mmHg 93%
    02:00 +8°C° 0 mm 3 m/s 775 mmHg 93%
    03:00 +8°C° 0 mm 3 m/s 775 mmHg 93%
    04:00 +8°C° 0 mm 3 m/s 775 mmHg 94%
    05:00 +8°C° 0 mm 3 m/s 774 mmHg 94%
    06:00 +8°C° 0 mm 3 m/s 774 mmHg 95%
    07:00 +9°C° 0 mm 3 m/s 774 mmHg 93%
    08:00 +10°C° 0 mm 3 m/s 775 mmHg 92%
    09:00 +11°C° 0 mm 3 m/s 775 mmHg 90%
    10:00 +12°C° 0 mm 3 m/s 775 mmHg 85%
    11:00 +14°C° 0 mm 2 m/s 775 mmHg 80%
    12:00 +15°C° 0 mm 2 m/s 774 mmHg 75%
    13:00 +15°C° 0 mm 2 m/s 774 mmHg 75%
    14:00 +16°C° 0 mm 2 m/s 774 mmHg 75%
    15:00 +16°C° 0 mm 2 m/s 773 mmHg 75%
    16:00 +14°C° 0 mm 2 m/s 773 mmHg 80%
    17:00 +13°C° 0 mm 2 m/s 773 mmHg 86%
    18:00 +12°C° 0 mm 2 m/s 773 mmHg 91%
    19:00 +10°C° 0 mm 2 m/s 773 mmHg 91%
    20:00 +10°C° 0 mm 2 m/s 773 mmHg 91%
    21:00 +10°C° 0 mm 2 m/s 773 mmHg 92%
    22:00 +9°C° 0 mm 2 m/s 773 mmHg 91%
    23:00 +9°C° 0 mm 2 m/s 773 mmHg 91%
    Voir plus